Погода в Чёпинге

Швеция     59°30′53″N   15°59′51″E
темп.,
°C
ветер,
м/с
пор.,
м/с
влажн.,
%
обл.,
%
осадки,
мм/ч
давл.,
гПа
погр.,
м
19 сентября, вс
вс1923:00+9всв2459100 0.0 1026126
02:00+6св268673 0.0 1026153
05:00+4ссв268769 0.0 1027132
08:00+6ссв3875100 0.0 1027246
11:00+10св3758100 0.0 1027734
14:00+11всв355278 0.0 10271293
17:00+11св345598 0.0 10261348
20:00+8св2670100 0.0 1027265
20 сентября, пн
пн2023:00+8св268065 0.1 1027275
02:00+5ссв258682 0.1 102889
05:00+7ссв3774100 0.0 1027291
08:00+7ссв2778100 0.0 1028321
11:00+9ссв3569100 0.0 1028381
14:00+9ссв2464100 0.1 1027447
17:00+9ссв2470100 0.1 1027268
20:00+8св1275100 0.1 102751
21 сентября, вт
вт2123:00+7юв1275100 0.0 102756
02:00+7ююв1172100 0.0 102618
05:00+7ю1272100 0.0 102543
08:00+8ююз1472100 0.0 1025154
11:00+10ююз3559100 0.0 1024821
14:00+10ююз2570100 0.1 1023772
17:00+8ю3787100 0.4 1023446
20:00+8ю2788100 0.5 1023279
22 сентября, ср
ср2223:00+8ю2691100 0.0 1023250
02:00+8ююв2493100 0.0 1022124
05:00+9ююв259291 0.0 1021195
08:00+9ююв2693100 0.0 1020217
11:00+12ю368295 0.0 1019381
14:00+15ю466799 0.0 1017871
17:00+16ю376667 0.0 1014968
20:00+13ююз411846 0.0 1012459
23 сентября, чт
чт2323:00+12ююз4128846 0.0 1009737
02:00+13юз51285100 0.0 10061056
05:00+13юз51378100 0.2 10031242
08:00+13зюз4985100 0.5 1000896
11:00+13зюз587254 0.6 9991061
14:00+14зсз585923 0.9 9971437
17:00+9ссз5875100 0.3 9981033
20:00+8ссз247782 0.3 998142